Vertical_Velocity
-1 -3 -5 -4 0 -0 0 4 3 1 0 -1 0 1 3 1 -0 8 0 1 5 2
4 -2 -2 2 -1 -1 -1 1 -3 -1 -2 -2 -2 1 4 -1 -1 6 3 2 2 3
-4 -2 -8 -4 -5 -2 -6 -4 -2 -3 -2 0 1 3 -0 -4 2 1 3 4 3 3
0 -6 -4 -6 -6 -6 -2 -4 -3 -2 -3 -5 -5 2 4 6 8 -2 6 3 2 -1
4 -5 1 -2 -4 -4 -3 -3 -3 -3 -1 0 -2 -4 -5 -1 -0 4 4 2 3 -0
-3 -5 -2 -2 -1 -3 -2 -1 2 -3 -4 -5 -2 -6 -2 2 0 -1 -4 -1 -0 3
-2 -3 -2 -4 -3 -2 0 -0 -3 -3 -0 -3 -2 -3 1 -2 3 2 4 0 -0 -2
-2 -3 -5 -2 -2 1 -2 -2 -1 -3 -2 -1 1 1 2 1 10 -0 -3 -4 -1 4
-2 -2 -3 -4 -2 -3 -2 -2 -1 2 -0 -1 1 2 -1 -0 -1 -0 1 2 1 -1
-2 -3 -2 -3 -1 -3 -1 -2 -1 -1 -0 -5 -7 -1 2 2 -1 -4 -5 -2 -5 -2
-4 -1 -4 -5 -2 -3 -2 -1 1 -1 -3 -3 -2 0 -1 -5 -4 -1 -4 -4 2 -0
-1 -1 -1 -3 -2 -3 -3 -4 -1 1 -2 -2 -2 -8 -2 0 -0 -1 -3 -1 -2 -3
-2 -1 -2 -2 -1 1 -1 -2 -2 -2 3 -1 -1 1 -2 -0 -2 -3 0 -1 -3 -3
-0 -1 -1 -1 -1 0 -0 -0 1 -2 -2 -2 -0 1 1 -4 -2 3 0 -0 2 1
Height
3014 3005 2998 2992 2988 2985 2986 2988 2991 2992 2991 2991 2990 2991 2991 2991 2993 2995 2999 3003 3009 3015
3006 2997 2989 2981 2975 2976 2978 2981 2982 2983 2983 2983 2983 2983 2981 2981 2982 2983 2987 2991 2996 3001
2999 2993 2986 2976 2970 2970 2972 2975 2975 2976 2976 2976 2974 2973 2971 2972 2973 2973 2977 2980 2983 2989
2996 2993 2985 2975 2970 2968 2970 2971 2971 2971 2969 2966 2963 2962 2959 2959 2960 2963 2967 2970 2974 2979
2993 2989 2982 2976 2971 2970 2968 2967 2966 2963 2960 2958 2955 2954 2950 2947 2949 2954 2958 2963 2967 2971
2994 2988 2981 2977 2972 2968 2965 2962 2959 2957 2953 2950 2948 2945 2942 2940 2942 2947 2953 2957 2961 2965
2994 2987 2981 2976 2971 2967 2963 2959 2956 2952 2949 2946 2943 2940 2939 2938 2941 2944 2948 2953 2957 2960
2992 2986 2982 2975 2969 2965 2960 2956 2952 2949 2946 2943 2940 2938 2936 2937 2939 2941 2945 2948 2950 2953
2990 2985 2980 2974 2968 2962 2957 2954 2949 2945 2943 2940 2938 2938 2937 2937 2937 2939 2940 2943 2946 2948
2989 2983 2977 2972 2966 2961 2955 2950 2946 2941 2937 2936 2935 2935 2936 2936 2936 2936 2937 2940 2942 2944
2987 2983 2977 2972 2966 2959 2954 2948 2943 2938 2932 2929 2928 2929 2929 2930 2930 2932 2933 2934 2936 2938
2983 2980 2975 2970 2965 2959 2954 2947 2941 2935 2931 2926 2922 2921 2922 2924 2925 2926 2928 2930 2932 2933
2981 2977 2973 2967 2962 2957 2952 2948 2942 2936 2930 2927 2921 2916 2914 2916 2917 2919 2922 2926 2928 2929
2977 2973 2969 2965 2960 2955 2950 2944 2940 2936 2931 2927 2923 2918 2914 2910 2912 2914 2918 2919 2921 2923